Flag for U.S.A. Weather past 2 weeks in Coeur d'Alene, Idaho, U.S.A.

Now
41 °F

Clear.


Feels Like: 36 °F
Forecast: 30 / 40 °F
Wind: 7 mph from Southwest

Location: Coeur d'Alene Weather Reporting System

Current Time: Dec 21, 2014 at 8:24:50 PM

Latest Report: Dec 21, 2014 at 7:35 PM


Visibility: 10 mi

Pressure: 29.91 "Hg

Humidity: 76%

Dew point: 34 °F

Location of Coeur d'AleneLocation

Historic Weather in Coeur d'Alene — Graph

°F

Coeur d'Alene temperature yesterday

Maximum temperature yesterday: 39 °F (at 12:15 PM)
Minimum temperature yesterday: 32 °F (at 5:55 AM)
Average temperature yesterday: 37 °F

Past Weeks' High & Low Weather Summary

 TemperatureHumidityPressure
High55 °F (Dec 10, 8:55 PM)100% (Dec 7, 5:55 AM)30.32 "Hg (Dec 7, 5:55 AM)
Low27 °F (Dec 15, 7:15 AM)63% (Dec 10, 8:35 PM)29.43 "Hg (Dec 21, 1:35 AM)
Average38 °F85%29.94 "Hg
* Reported Dec 6 6:15 PM — Dec 21 6:55 PM, Coeur d'Alene, Weather by CustomWeather, © 2014

Note: Actual official high and low records may vary slightly from our data, if they occured in-between our weather recording intervals... More about our weather records

Advertising

Coeur d'Alene weather history for previous 24 hours

 ConditionsComfort  
Time TempWeatherWind HumidityBarometerVisibility
6:55 PM
Dec 21
39 °FClear.6 mph81%29.89 "Hg10 mi
6:35 PM41 °FClear.6 mph76%29.88 "Hg10 mi
6:15 PM41 °FPassing clouds.8 mph81%29.88 "Hg10 mi
5:55 PM43 °FPassing clouds.9 mph76%29.88 "Hg10 mi
5:35 PM45 °FOvercast.14 mph71%29.88 "Hg10 mi
5:15 PM43 °FOvercast.8 mph76%29.86 "Hg10 mi
4:55 PM45 °FOvercast.13 mph76%29.87 "Hg10 mi
4:35 PM43 °FOvercast.10 mph76%29.86 "Hg10 mi
4:15 PM43 °FPassing clouds.6 mph76%29.85 "Hg10 mi
3:55 PM43 °FPassing clouds.6 mph76%29.84 "Hg10 mi
3:35 PM45 °FPassing clouds.6 mph71%29.84 "Hg10 mi
3:15 PM45 °FSunny.6 mph76%29.84 "Hg10 mi
2:55 PM45 °FSunny.7 mph71%29.83 "Hg10 mi
2:35 PM45 °FSunny.9 mph76%29.81 "Hg10 mi
2:15 PM45 °FSunny.8 mph71%29.80 "Hg10 mi
1:15 PM46 °FSunny.16 mph71%29.77 "Hg10 mi
12:55 PM46 °FSunny.21 mph71%29.76 "Hg10 mi
12:35 PM46 °FSunny.17 mph71%29.76 "Hg10 mi
12:15 PM46 °FSunny.20 mph71%29.76 "Hg10 mi
11:55 AM46 °FSunny.14 mph71%29.75 "Hg10 mi
11:35 AM46 °FPassing clouds.18 mph71%29.75 "Hg10 mi
11:15 AM45 °FPassing clouds.20 mph76%29.75 "Hg10 mi
10:55 AM45 °FSunny.22 mph71%29.74 "Hg10 mi
10:35 AM43 °FSunny.16 mph76%29.74 "Hg10 mi
10:15 AM43 °FSunny.20 mph76%29.73 "Hg10 mi
9:55 AM43 °FSunny.14 mph76%29.73 "Hg10 mi
9:35 AM43 °FSunny.12 mph76%29.71 "Hg10 mi
9:15 AM43 °FSunny.12 mph76%29.70 "Hg10 mi
8:55 AM39 °FSunny.14 mph87%29.69 "Hg10 mi
8:35 AM39 °FSunny.16 mph87%29.67 "Hg10 mi
8:15 AM39 °FSunny.21 mph87%29.65 "Hg10 mi
7:55 AM39 °FSunny.21 mph87%29.63 "Hg10 mi
7:35 AM39 °FSunny.17 mph87%29.64 "Hg10 mi
7:15 AM39 °FClear.15 mph87%29.63 "Hg10 mi
6:55 AM41 °FClear.18 mph81%29.60 "Hg10 mi
6:35 AM43 °FPassing clouds.21 mph76%29.59 "Hg10 mi
6:15 AM43 °FMostly cloudy.21 mph76%29.58 "Hg10 mi
5:55 AM43 °FMostly cloudy.16 mph81%29.58 "Hg10 mi
5:35 AM45 °FOvercast.17 mph76%29.57 "Hg10 mi
5:15 AM45 °FOvercast.18 mph81%29.56 "Hg10 mi
4:55 AM45 °FMostly cloudy.23 mph81%29.53 "Hg10 mi
4:35 AM46 °FMostly cloudy.20 mph82%29.52 "Hg10 mi
4:15 AM46 °FMostly cloudy.17 mph87%29.51 "Hg10 mi
3:55 AM46 °FMostly cloudy.17 mph87%29.49 "Hg10 mi
3:35 AM48 °FOvercast.23 mph87%29.48 "Hg10 mi
3:15 AM48 °FMostly cloudy.17 mph87%29.45 "Hg10 mi
2:55 AM46 °FMostly cloudy.18 mph93%29.45 "Hg10 mi
2:35 AM46 °FLow clouds.16 mph93%29.45 "Hg10 mi
2:15 AM45 °FOvercast.12 mph93%29.45 "Hg9 mi
1:55 AM43 °FOvercast.10 mph87%29.44 "Hg10 mi
1:35 AM43 °FOvercast.15 mph87%29.43 "Hg10 mi
1:15 AM41 °FOvercast.12 mph93%29.44 "Hg10 mi
12:55 AM41 °FOvercast.13 mph93%29.45 "Hg10 mi
12:35 AM41 °FOvercast.12 mph87%29.46 "Hg10 mi
12:15 AM39 °FOvercast.10 mph93%29.46 "Hg10 mi
11:55 PM
Dec 20
39 °FOvercast.12 mph93%29.47 "Hg9 mi
11:35 PM39 °FOvercast.12 mph93%29.49 "Hg10 mi
11:15 PM39 °FMostly cloudy.9 mph87%29.50 "Hg8 mi
10:55 PM39 °FOvercast.13 mph87%29.51 "Hg8 mi
10:35 PM39 °FOvercast.14 mph87%29.52 "Hg5 mi
10:15 PM39 °FMostly cloudy.8 mph87%29.53 "Hg10 mi
9:55 PM39 °FMostly cloudy.5 mph87%29.53 "Hg10 mi
9:35 PM39 °FOvercast.6 mph87%29.55 "Hg10 mi
9:15 PM39 °FMostly cloudy.5 mph87%29.56 "Hg10 mi
8:55 PM39 °FOvercast.7 mph87%29.56 "Hg10 mi
8:35 PM39 °FOvercast.7 mph87%29.57 "Hg10 mi
8:15 PM39 °FOvercast.6 mph87%29.59 "Hg10 mi
Weather by CustomWeather, © 2014

See weather overviewHow to use our weather pages